This is the latest recevied weather packets stored in our database for station/object AA8FM-13. If no packets are shown the sender has not sent any weather packets the latest 10 day(s).
| Time | Temp. | Humidity | Pressure | Rain* | Wind** | Luminosity | Snow |
|---|---|---|---|---|---|---|---|
| 1777929623 | 21.11° C | 52% | 1006.4 hPa | 0 mm | - | 221 W/m² | - |
| 1777929320 | 21.11° C | 53% | 1006.7 hPa | 0 mm | - | 120 W/m² | - |
| 1777929017 | 21.11° C | 53% | 1006.3 hPa | 0 mm | - | 91 W/m² | - |
| 1777928714 | 21.11° C | 52% | 1006.7 hPa | 0 mm | - | 97 W/m² | - |
| 1777928410 | 21.67° C | 51% | 1006.6 hPa | 0 mm | - | 121 W/m² | - |
| 1777928108 | 21.67° C | 51% | 1006.4 hPa | 0 mm | - | 153 W/m² | - |
| 1777927806 | 21.67° C | 52% | 1006.2 hPa | 0 mm | - | 446 W/m² | - |
| 1777927504 | 21.67° C | 51% | 1006.3 hPa | 0 mm | - | 172 W/m² | - |
| 1777927202 | 21.11° C | 51% | 1006.3 hPa | 0 mm | - | 134 W/m² | - |
| 1777926900 | 21.11° C | 51% | 1006.5 hPa | 0 mm | - | 110 W/m² | - |
| 1777926596 | 22.22° C | 50% | 1006.6 hPa | 0 mm | - | 148 W/m² | - |
| 1777926292 | 22.22° C | 49% | 1006.4 hPa | 0 mm | - | 210 W/m² | - |
| 1777925989 | 22.22° C | 50% | 1006.5 hPa | 0 mm | - | 290 W/m² | - |
| 1777925687 | 22.22° C | 50% | 1006.5 hPa | 0 mm | - | 577 W/m² | - |
| 1777925384 | 21.11° C | 52% | 1006.6 hPa | 0 mm | - | 149 W/m² | - |
| 1777925081 | 21.11° C | 50% | 1006.7 hPa | 0 mm | - | 106 W/m² | - |
| 1777924777 | 21.67° C | 50% | 1006.7 hPa | 0 mm | - | 100 W/m² | - |
| 1777924473 | 21.67° C | 51% | 1006.6 hPa | 0 mm | - | 133 W/m² | - |
| 1777924170 | 21.67° C | 49% | 1006.8 hPa | 0 mm | - | 267 W/m² | - |
| 1777923866 | 22.78° C | 51% | 1006.5 hPa | 0 mm | - | 326 W/m² | - |
| 1777923562 | 21.67° C | 51% | 1006.5 hPa | 0 mm | - | 627 W/m² | - |
| 1777923259 | 21.67° C | 49% | 1006.7 hPa | 0 mm | - | 611 W/m² | - |
| 1777922958 | 21.11° C | 52% | 1006.6 hPa | 0 mm | - | 583 W/m² | - |
| 1777922655 | 22.22° C | 52% | 1006.8 hPa | 0 mm | - | 212 W/m² | - |
| 1777922354 | 21.67° C | 50% | 1006.6 hPa | 0 mm | - | 573 W/m² | - |
* Rain latest hour (hover to see other rain measurements)
** Current wind speed in m/s (hover to see current wind gust speed)